Wetbulb
60.12 60.21 60.36 60.33 60.33 60.63 60.94 61.27 61.55 61.70 61.77 61.85 61.81 62.10 62.01 61.96 61.30 64.51 63.01 65.90 69.15 75.40 72.34 66.65 67.61 67.19 66.32 65.45 66.78 68.04 60.34 58.43 60.65 60.94 62.57 66.45 65.54 68.36 70.46 67.76 68.66 69.59 69.73 71.34 72.58
59.78 59.90 59.83 59.76 59.53 59.90 60.04 60.85 61.11 61.13 61.26 61.24 61.48 62.00 62.32 62.25 62.46 62.71 68.76 74.77 74.58 74.74 66.09 65.76 63.54 63.93 63.01 63.92 65.41 63.41 60.20 60.30 63.82 64.84 64.54 66.14 66.23 66.60 66.81 67.05 66.00 66.73 69.89 71.98 72.50
59.51 59.62 59.02 58.49 59.22 59.39 59.47 59.97 60.49 60.60 60.71 60.86 61.19 61.97 62.42 62.17 61.39 62.25 74.30 76.23 74.33 70.87 67.07 66.58 65.57 64.50 62.69 63.73 64.39 62.56 60.32 62.97 63.59 64.96 66.66 65.57 66.13 67.42 66.02 64.58 66.92 66.99 66.81 68.59 71.25
59.16 58.67 57.99 58.20 58.63 58.78 58.66 59.35 59.22 59.37 59.85 60.47 61.22 62.22 62.71 62.30 56.03 64.85 74.14 75.52 75.33 67.49 65.84 65.49 64.35 62.17 61.37 60.41 63.14 60.04 62.36 62.57 63.26 64.91 65.45 64.58 66.23 65.39 66.16 67.30 69.08 70.07 70.23 69.08 70.24
58.50 57.83 57.95 58.11 57.83 58.26 58.49 58.50 58.73 58.65 59.18 59.93 61.31 62.36 62.46 61.14 61.04 67.42 75.33 74.05 68.87 65.74 64.18 64.74 62.30 62.14 59.71 60.54 62.00 60.49 61.27 62.65 63.44 63.13 63.85 65.28 64.86 65.31 65.57 68.69 69.31 71.74 71.43 70.30 70.53
57.61 57.51 57.45 57.60 57.36 57.86 58.22 58.04 58.04 58.25 59.04 60.16 61.54 61.97 62.19 57.44 65.52 68.46 68.08 67.35 64.97 64.59 65.14 64.94 62.82 62.97 61.14 60.72 60.48 61.63 61.48 61.02 61.04 61.81 63.51 62.19 63.88 65.13 65.79 68.54 68.25 68.76 68.95 70.15 70.07
57.12 57.08 57.12 57.11 57.43 57.69 57.65 57.59 57.53 58.13 59.42 61.07 62.19 63.60 60.49 60.55 65.30 66.20 66.41 65.21 65.22 65.79 64.26 65.49 64.50 62.34 62.36 60.02 62.32 61.34 58.52 60.49 60.24 60.09 60.28 62.28 59.30 58.42 66.42 67.19 67.13 68.14 68.79 69.65 70.03
56.86 56.86 56.97 56.96 57.23 57.22 57.22 56.97 56.96 58.71 60.87 62.69 62.61 62.88 59.02 65.41 65.89 64.63 65.71 64.33 66.52 66.92 65.89 66.11 65.40 62.71 61.32 62.24 60.67 58.83 59.33 56.01 59.06 59.49 59.58 59.89 55.99 62.46 66.46 66.17 65.92 67.51 68.31 69.03 69.70
56.73 56.67 56.54 56.51 56.56 56.77 56.49 56.34 57.87 61.23 63.43 63.58 62.15 60.86 58.41 65.28 60.54 63.42 65.20 62.47 63.55 65.12 65.70 65.22 63.81 61.32 60.84 57.87 56.39 57.68 54.11 56.22 55.40 59.40 58.30 57.73 55.85 59.77 64.56 65.46 65.11 67.08 67.83 68.53 69.53
56.53 56.26 56.26 56.15 56.43 56.20 55.84 55.94 60.40 60.10 63.49 64.35 62.78 59.34 59.71 57.54 60.30 62.54 64.67 63.82 61.59 61.57 61.17 60.96 60.10 58.19 58.03 56.19 51.05 53.68 54.26 54.58 54.28 57.26 58.01 56.59 56.64 58.71 60.63 63.89 64.74 64.61 67.59 68.35 68.79
56.36 56.08 55.93 55.92 56.36 55.61 56.19 61.96 59.38 58.05 61.19 56.20 56.61 57.67 57.20 60.40 62.44 60.93 63.42 61.69 61.39 59.99 56.21 58.84 55.83 54.28 55.67 57.18 56.95 55.84 53.91 53.00 55.95 58.05 56.68 56.43 56.19 57.81 59.74 60.29 62.95 63.69 64.64 67.49 68.49
56.28 56.10 55.67 55.96 55.81 55.22 56.12 61.17 62.25 63.82 57.94 58.99 58.75 57.28 60.26 61.07 57.25 58.94 63.01 58.53 58.34 55.15 57.56 56.06 54.10 57.33 56.99 56.72 55.45 54.79 52.95 53.09 56.26 57.99 56.75 55.85 56.05 58.68 59.80 60.21 60.65 62.69 64.06 65.26 68.78
56.32 56.20 55.94 55.45 55.28 55.05 58.18 60.40 65.24 64.80 58.73 59.25 57.72 56.73 57.29 59.04 57.00 57.00 60.45 59.16 57.15 55.23 55.22 53.53 55.43 57.68 55.87 54.98 54.01 53.91 52.16 52.82 53.82 56.30 56.30 55.87 54.48 57.42 59.31 61.50 61.51 61.86 63.46 64.99 66.90
55.98 55.36 55.33 54.35 51.07 59.47 58.27 62.49 64.38 65.08 55.96 57.12 56.97 58.71 58.76 58.29 55.16 60.99 60.76 58.81 56.95 54.86 55.58 55.08 57.03 55.26 54.10 53.07 53.53 50.37 54.79 55.45 54.73 53.23 49.62 55.50 48.25 56.96 59.12 58.88 60.85 61.40 63.06 63.99 66.17
54.99 54.88 55.21 52.84 58.47 61.80 64.13 65.86 65.53 64.33 48.78 57.46 57.48 62.51 59.88 56.51 58.18 57.78 61.28 58.29 55.47 55.85 55.00 52.66 54.10 53.43 52.69 53.02 54.91 52.46 56.06 55.30 55.08 52.74 52.43 53.18 50.92 54.17 58.42 57.20 58.39 61.50 63.46 63.81 65.76
54.29 54.47 54.67 55.64 59.10 65.04 66.73 66.92 64.41 53.87 46.98 54.81 58.25 56.96 55.98 55.91 57.74 58.36 57.43 58.94 59.31 55.95 56.67 55.25 57.73 56.59 55.43 56.29 56.19 56.61 54.64 54.72 54.40 53.14 48.56 52.86 52.48 51.72 55.01 57.26 58.12 62.70 64.11 64.78 65.61
53.33 53.79 54.21 62.39 63.80 66.84 66.92 63.42 53.42 48.95 56.67 54.35 54.67 55.69 55.33 53.41 55.16 56.60 55.26 53.64 52.37 50.74 51.40 54.99 55.33 56.81 57.28 54.34 56.12 55.13 52.41 47.58 47.55 47.63 47.19 52.86 52.19 53.63 56.10 57.75 58.81 60.35 64.39 65.66 66.66
52.72 52.36 56.27 60.66 66.16 67.04 64.96 58.14 50.68 54.52 54.93 57.80 56.30 55.47 52.66 54.93 55.63 55.77 54.92 52.75 55.15 54.63 52.66 51.18 50.12 55.72 57.78 55.67 53.80 54.54 53.92 48.93 44.98 45.40 47.53 54.00 50.08 53.23 57.56 59.25 60.83 62.09 64.78 66.26 66.51
51.70 59.67 64.08 65.29 64.86 66.95 61.47 53.15 53.37 56.61 57.81 56.27 56.15 53.08 53.16 55.65 55.63 55.33 55.33 54.69 56.00 56.51 52.59 51.93 52.32 57.58 57.37 57.56 56.43 53.74 51.94 55.68 50.84 51.39 48.60 50.50 54.49 57.72 58.65 58.66 59.23 61.75 63.49 65.59 66.60
62.38 65.87 65.37 67.34 67.67 64.60 58.88 51.92 57.29 59.66 59.03 57.75 53.37 54.79 52.54 54.00 53.73 54.01 54.60 56.83 55.97 58.21 58.99 55.39 50.97 56.12 57.17 57.65 57.33 55.47 56.37 50.33 51.49 46.93 45.05 49.44 51.33 50.98 56.41 57.31 59.70 61.20 62.29 65.40 67.10
62.25 63.10 65.93 66.64 66.27 61.10 54.92 56.53 57.96 59.52 59.60 56.75 55.77 55.65 55.29 55.32 55.44 54.31 54.92 57.87 58.78 58.21 59.03 57.29 54.46 53.62 56.87 54.98 54.49 54.85 53.13 53.86 53.73 51.72 46.78 45.37 49.03 57.31 58.56 58.81 59.39 62.57 64.80 65.57 66.60
64.01 60.73 65.49 65.31 57.23 57.59 55.22 57.78 53.64 58.01 58.99 58.22 58.78 57.93 57.04 56.54 55.46 54.76 54.80 57.20 59.46 59.18 55.78 57.72 54.73 52.09 53.76 57.20 57.48 55.95 54.75 55.07 51.49 50.68 51.66 51.05 50.63 58.18 59.75 59.25 63.47 64.19 65.58 66.42 67.28
61.85 64.33 66.11 62.87 55.18 57.30 58.17 57.33 57.44 56.13 57.10 57.22 56.30 57.24 58.84 56.75 54.46 56.30 56.93 58.71 58.85 57.86 55.93 57.57 54.22 49.23 50.31 53.34 55.82 53.74 55.12 55.33 54.64 53.59 51.47 48.28 49.21 60.66 60.02 61.11 62.36 61.79 65.09 66.87 67.96
62.04 58.64 61.67 61.16 61.59 58.60 57.48 55.62 54.56 56.65 56.78 57.74 57.48 58.31 56.63 54.96 56.56 54.78 55.46 57.94 58.58 57.79 61.27 60.81 53.51 50.41 46.68 49.66 52.54 51.03 52.41 54.42 54.35 50.73 50.96 51.52 52.97 56.43 57.74 58.89 59.10 60.88 65.35 65.91 67.50
61.92 60.06 62.54 58.86 58.61 58.34 58.34 58.10 55.23 54.57 56.71 57.31 56.07 55.73 55.34 54.10 55.16 55.30 56.92 57.17 57.86 60.05 57.49 54.98 50.18 51.71 51.91 52.32 52.26 51.56 51.51 51.93 50.89 51.53 48.64 50.28 51.08 54.07 57.38 58.61 58.64 61.38 64.62 65.34 66.39
58.92 58.13 60.65 59.80 59.95 59.38 54.24 56.55 56.13 56.58 56.49 55.99 55.32 56.52 56.49 54.28 55.01 53.55 55.33 56.12 55.34 57.06 56.01 56.30 51.08 52.44 50.41 52.77 52.64 50.77 51.93 52.05 52.00 52.05 51.56 51.51 51.31 56.53 57.73 61.41 57.64 59.93 64.48 64.25 64.84
59.97 62.11 58.70 55.23 57.86 56.64 56.86 58.14 56.89 57.69 57.68 57.31 56.41 56.11 55.15 56.22 57.75 58.12 58.22 57.20 56.13 54.63 54.11 53.88 52.25 50.71 47.20 51.77 51.17 47.92 51.34 51.81 52.05 53.24 52.43 49.24 53.03 59.84 59.84 60.52 61.21 62.51 64.10 63.67 64.19
MSLP
1015.53 1015.29 1015.05 1014.80 1014.57 1014.33 1014.08 1013.77 1013.46 1013.13 1012.77 1012.37 1011.96 1011.54 1011.16 1010.72 1009.56 1008.47 1007.05 1005.91 1005.63 1005.29 1005.17 1003.74 1002.37 1000.90 1000.29 999.89 1000.27 1002.07 1004.10 1002.68 1002.25 1002.08 1002.17 1002.15 1002.37 1002.35 1002.77 1003.24 1002.98 1003.97 1005.41 1005.50 1005.59
1015.50 1015.27 1015.06 1014.86 1014.61 1014.32 1014.04 1013.69 1013.41 1013.12 1012.73 1012.38 1011.92 1011.49 1011.18 1010.76 1009.13 1006.68 1005.80 1005.54 1005.40 1005.44 1004.66 1002.70 1001.45 1000.57 999.84 999.63 999.87 1001.54 1002.74 1002.03 1002.07 1001.85 1001.99 1001.91 1002.15 1002.40 1002.50 1003.22 1004.94 1004.98 1006.68 1006.03 1006.27
1015.46 1015.23 1015.03 1014.88 1014.59 1014.26 1013.97 1013.67 1013.37 1013.09 1012.69 1012.30 1011.83 1011.41 1011.19 1010.83 1008.21 1005.30 1005.63 1005.59 1005.36 1005.50 1004.92 1003.32 1001.68 1000.51 999.60 999.14 1000.14 1001.04 1001.44 1001.56 1001.81 1002.24 1002.09 1001.96 1001.61 1001.55 1002.28 1003.17 1003.74 1005.03 1005.81 1006.96 1006.38
1015.44 1015.21 1015.01 1014.80 1014.54 1014.19 1013.91 1013.60 1013.34 1013.02 1012.64 1012.23 1011.76 1011.35 1011.01 1009.83 1006.48 1005.06 1005.44 1005.41 1005.42 1005.39 1004.64 1002.80 1001.29 1000.33 999.70 999.30 999.85 1000.57 1001.24 1001.23 1001.73 1001.83 1001.78 1001.75 1001.88 1001.67 1001.99 1002.49 1002.66 1004.31 1005.30 1005.69 1005.68
1015.42 1015.14 1014.91 1014.68 1014.44 1014.11 1013.77 1013.48 1013.21 1012.87 1012.47 1012.11 1011.76 1011.44 1010.16 1008.11 1004.90 1004.68 1005.03 1005.20 1005.09 1004.98 1004.00 1002.44 1001.29 1000.32 999.75 999.70 999.85 1000.36 1000.91 1000.60 1001.15 1001.19 1001.44 1001.72 1002.02 1002.08 1002.05 1002.32 1002.71 1003.54 1004.18 1004.64 1005.07
1015.37 1015.09 1014.83 1014.54 1014.30 1013.99 1013.67 1013.36 1013.08 1012.73 1012.31 1011.96 1011.71 1011.55 1010.06 1006.31 1003.72 1003.72 1004.03 1004.42 1004.20 1004.10 1003.20 1002.35 1001.60 1001.47 1000.64 1000.08 1000.27 1000.71 1000.57 1000.23 1000.49 1000.85 1001.01 1001.71 1002.06 1002.42 1002.02 1002.00 1002.32 1002.89 1003.45 1003.96 1004.37
1015.31 1014.97 1014.66 1014.40 1014.09 1013.83 1013.57 1013.22 1012.87 1012.52 1012.10 1011.79 1011.68 1011.06 1008.27 1004.95 1003.76 1003.54 1003.86 1003.60 1003.57 1003.19 1002.39 1002.05 1002.14 1001.84 1001.13 1000.30 1000.51 1000.69 1000.05 999.67 1000.15 1000.51 1000.71 1001.49 1002.62 1004.16 1002.08 1001.67 1001.83 1002.41 1002.99 1003.24 1003.88
1015.14 1014.82 1014.47 1014.20 1013.95 1013.67 1013.40 1013.03 1012.60 1012.20 1011.81 1011.53 1011.55 1010.41 1006.63 1003.56 1003.47 1003.77 1003.51 1003.27 1003.15 1002.97 1002.67 1002.43 1002.58 1002.33 1001.53 1000.75 1000.43 1000.14 999.90 999.28 999.62 1000.06 1000.34 1000.76 1002.35 1002.30 1001.76 1001.24 1001.12 1001.55 1002.04 1002.65 1003.35
1014.96 1014.64 1014.33 1014.06 1013.78 1013.49 1013.19 1012.81 1012.23 1011.79 1011.50 1011.32 1010.84 1008.94 1005.09 1003.98 1003.67 1003.61 1003.27 1002.83 1002.94 1003.01 1002.92 1002.93 1003.02 1002.21 1001.22 1000.39 999.74 999.48 999.01 999.24 999.12 999.34 999.82 1000.05 1000.18 999.97 999.83 1000.19 1000.45 1000.62 1001.08 1001.84 1002.64
1014.75 1014.48 1014.18 1013.92 1013.68 1013.36 1012.95 1012.63 1011.70 1011.53 1010.86 1009.90 1008.89 1007.38 1004.12 1002.89 1002.52 1002.87 1003.00 1002.85 1002.47 1002.67 1002.63 1002.65 1002.47 1001.66 1000.62 999.88 998.93 999.17 999.51 998.87 999.11 999.23 999.60 999.76 999.38 999.11 998.67 998.96 999.43 999.87 1000.15 1000.93 1001.59
1014.47 1014.21 1013.97 1013.75 1013.57 1013.40 1012.68 1011.39 1011.11 1009.85 1008.37 1006.03 1004.94 1003.71 1002.30 1001.90 1001.93 1002.59 1002.58 1002.92 1002.65 1002.36 1002.07 1001.83 1001.54 1000.54 999.75 999.23 999.21 999.81 999.92 999.47 999.23 999.08 999.40 999.20 998.73 997.99 997.84 997.94 998.24 998.88 999.48 999.69 1000.51
1014.11 1013.87 1013.70 1013.57 1013.44 1013.40 1013.11 1009.55 1005.98 1005.02 1004.94 1004.72 1003.84 1003.11 1002.57 1001.98 1001.99 1002.27 1002.40 1002.67 1002.32 1001.93 1001.53 1001.42 1000.46 1000.03 1000.00 999.73 999.68 1000.08 999.94 999.62 999.20 998.80 999.13 998.76 997.87 997.13 996.77 997.03 997.50 997.70 998.36 998.91 999.66
1013.76 1013.52 1013.45 1013.39 1013.28 1012.99 1010.31 1007.48 1005.51 1004.87 1003.66 1002.39 1002.73 1002.25 1002.16 1002.40 1001.36 1001.11 1001.95 1002.12 1001.66 1001.46 1001.04 1000.39 999.69 999.41 999.99 999.85 999.75 999.68 999.54 999.39 999.17 998.99 999.08 998.06 997.20 996.34 996.01 996.89 997.19 997.24 997.33 997.74 998.45
1013.43 1013.21 1013.16 1013.21 1013.41 1009.10 1008.00 1006.62 1006.11 1005.02 1003.25 1001.18 1001.50 1001.30 1001.45 1001.76 1001.09 1000.23 1001.22 1001.66 1001.37 1000.95 1000.52 1000.02 999.65 999.66 999.66 999.74 999.94 999.44 999.12 998.95 999.27 999.30 998.78 998.28 997.11 996.03 996.34 996.48 996.52 996.47 996.52 996.73 997.59
1013.06 1012.89 1012.88 1013.28 1011.37 1007.36 1005.25 1005.19 1005.12 1004.84 1001.82 1000.64 1000.48 1000.45 1000.79 1000.96 999.92 1000.62 1000.84 1001.33 1000.90 1000.41 1000.69 1000.00 999.37 999.68 999.68 999.66 999.54 999.51 999.28 999.26 999.53 999.38 998.94 997.72 996.62 995.89 996.03 996.09 996.36 996.30 996.73 996.78 996.93
1012.78 1012.62 1012.78 1012.26 1010.88 1007.24 1005.35 1005.25 1005.22 1003.82 1000.09 999.53 1000.02 1000.48 1000.48 1000.59 999.99 1000.45 1000.92 1001.22 1000.74 1000.73 1000.19 1000.01 999.61 999.62 999.64 999.46 999.40 999.63 999.72 999.53 999.26 999.11 998.56 997.36 996.57 995.40 995.78 995.83 996.15 996.17 996.74 996.96 997.00
1012.40 1012.27 1012.49 1009.81 1006.65 1005.43 1005.31 1005.06 1003.82 1001.26 998.78 998.76 999.23 999.62 999.81 1000.00 999.88 1000.08 1000.63 1000.82 1000.76 1000.43 999.73 999.12 998.68 998.77 999.21 999.46 999.23 999.43 999.38 998.94 998.18 998.03 998.30 998.64 996.93 995.81 995.52 995.69 996.01 996.16 996.27 996.84 997.24
1012.17 1012.08 1010.47 1009.12 1007.25 1005.89 1005.24 1004.49 1002.15 999.30 997.93 997.89 998.32 999.15 999.36 999.09 999.27 999.63 1000.09 1000.07 1000.31 999.90 999.19 998.22 997.47 997.77 998.06 998.88 998.87 998.57 998.47 998.19 997.75 997.44 997.17 997.02 996.34 995.68 995.67 995.82 996.28 996.17 996.37 996.99 997.40
1012.28 1010.92 1008.69 1006.69 1007.05 1005.88 1004.84 1002.96 1000.24 998.57 997.80 997.98 998.22 998.46 998.61 998.46 998.59 999.03 999.22 998.93 998.69 998.98 999.17 998.60 997.81 997.80 998.49 998.76 999.00 998.62 998.17 997.85 997.67 997.50 997.13 996.57 996.45 997.16 996.98 996.65 996.74 996.72 996.96 997.24 997.44
1010.93 1008.13 1005.37 1004.93 1005.42 1005.38 1004.20 1001.88 1000.15 999.35 999.07 998.59 997.90 998.09 997.73 997.96 998.41 998.69 998.55 998.42 998.52 999.32 999.95 999.82 999.20 998.53 998.15 998.39 998.83 998.84 998.65 998.15 997.67 997.73 997.52 996.93 997.44 998.69 998.47 998.02 997.67 997.88 998.39 998.28 998.04
1010.28 1006.80 1004.05 1004.41 1004.86 1004.48 1002.84 1000.80 999.75 999.89 1000.00 999.34 998.32 997.82 997.76 997.53 997.81 998.35 998.27 998.78 999.16 999.79 1000.51 1000.65 1000.20 999.57 998.91 998.22 997.93 997.83 998.19 998.44 998.38 998.40 997.92 997.49 997.59 997.69 998.45 998.44 998.50 998.83 999.68 999.65 999.28
1008.71 1005.29 1003.94 1004.03 1004.11 1003.18 1001.92 1000.48 1000.68 1000.25 1000.24 999.87 999.41 998.77 998.42 998.20 998.16 998.57 998.74 999.75 1000.60 1000.86 1001.08 1001.17 1001.05 1000.21 999.56 998.89 998.51 998.19 997.91 998.11 998.24 998.70 998.40 998.57 998.42 998.25 999.10 999.96 999.52 1000.18 1000.73 1001.03 1000.78
1008.44 1004.23 1003.46 1003.59 1002.77 1001.61 1000.84 1000.93 1001.06 1000.58 1000.31 1000.10 1000.04 999.88 999.71 999.68 999.83 999.75 999.75 1001.01 1001.60 1002.01 1003.09 1002.83 1001.91 1000.98 1000.23 999.48 998.22 998.81 998.19 998.41 998.45 998.67 998.63 998.56 998.10 998.91 999.83 1000.31 1001.80 1002.43 1001.92 1002.12 1001.81
1008.74 1003.83 1003.04 1003.35 1002.81 1001.92 1000.38 1000.88 1000.99 1001.52 1001.39 1001.21 1000.96 1000.91 1001.15 1000.89 1000.86 1000.99 1000.83 1000.80 1001.88 1002.63 1003.82 1004.00 1003.42 1002.86 1002.02 1001.09 1000.26 1000.05 999.59 999.46 999.62 999.11 999.07 999.18 998.27 998.99 1001.64 1002.98 1003.76 1003.80 1003.03 1002.87 1002.68
1008.18 1004.25 1003.19 1002.26 1002.11 1001.66 1001.28 1001.27 1000.96 1001.20 1001.88 1002.05 1002.05 1001.98 1001.86 1001.68 1001.33 1001.05 1001.20 1001.42 1002.12 1003.16 1003.86 1004.25 1003.96 1003.58 1002.86 1002.24 1001.53 1000.76 1000.32 1000.14 1000.02 1000.00 999.79 999.44 999.08 999.63 1001.00 1002.87 1003.84 1002.97 1003.90 1003.36 1003.32
1008.32 1006.83 1005.50 1003.58 1003.08 1002.79 1002.48 1002.32 1001.99 1001.75 1002.26 1002.42 1002.57 1002.66 1002.73 1003.20 1003.10 1002.73 1002.43 1002.49 1002.68 1003.01 1003.32 1003.58 1003.81 1003.87 1003.40 1002.95 1002.26 1001.43 1000.95 1000.54 1000.30 1000.17 999.97 999.99 999.83 1000.10 1000.59 1002.05 1003.64 1004.62 1003.68 1004.01 1004.19
1010.48 1008.63 1007.33 1005.13 1003.95 1003.35 1002.63 1002.56 1002.74 1003.33 1003.54 1003.95 1004.07 1004.20 1004.13 1004.77 1004.80 1004.41 1004.09 1003.99 1003.88 1003.69 1003.67 1003.88 1003.99 1004.19 1003.61 1003.54 1002.82 1001.90 1001.28 1000.53 1000.16 1000.23 1000.34 1000.22 1000.40 1000.96 1001.62 1002.59 1003.32 1003.73 1004.28 1004.89 1004.90
Wind_Speed
11 11 11 11 12 12 12 12 13 13 14 15 15 15 15 16 21 8 12 2 3 7 10 19 22 14 13 5 2 8 2 5 10 7 6 4 3 5 5 5 4 8 4 17 19
11 11 11 12 12 12 12 13 13 13 14 15 15 15 15 15 12 16 2 0 3 7 13 20 12 11 11 7 3 8 4 7 8 11 6 4 5 8 5 6 9 13 15 10 18
12 12 12 12 12 12 13 13 14 14 15 15 16 15 14 14 11 7 2 1 1 5 12 20 15 15 15 1 15 3 6 6 8 7 5 2 4 4 10 2 7 14 8 5 12
12 12 12 12 12 12 13 14 14 14 15 15 16 15 15 8 5 7 5 3 2 7 13 20 13 16 13 6 2 9 3 2 3 4 3 4 3 3 6 4 8 22 22 22 15
12 12 12 12 12 13 13 14 14 15 15 15 15 14 10 10 11 11 8 6 8 10 14 16 11 10 14 6 2 7 3 2 4 1 1 2 2 5 3 5 1 20 21 14 12
13 13 13 12 13 13 13 14 14 15 16 15 14 13 8 15 7 9 8 8 12 12 16 9 10 9 11 6 7 3 6 2 4 4 2 2 2 4 6 5 5 5 8 13 9
13 13 13 13 13 13 14 15 15 15 15 14 10 7 11 16 4 1 6 10 12 14 16 8 7 12 15 11 4 7 14 8 6 3 2 4 15 19 13 6 8 9 7 10 10
13 13 13 13 13 14 14 15 16 15 14 12 7 9 9 10 5 4 9 8 7 10 12 9 6 11 14 7 12 15 7 7 9 4 1 7 8 25 24 7 9 12 11 8 9
13 13 13 13 13 13 13 17 17 13 11 9 7 9 16 4 11 12 11 11 10 11 9 6 9 14 14 11 14 13 9 12 3 4 4 8 8 3 10 11 9 13 12 12 13
13 13 12 12 11 12 14 14 8 13 8 9 11 10 16 12 12 16 12 11 7 9 11 11 11 13 13 11 9 1 8 12 6 5 6 11 11 11 7 12 12 8 11 14 16
13 12 12 11 9 10 13 5 6 7 13 14 13 15 7 5 7 7 10 10 12 13 12 14 13 12 14 12 10 10 11 11 10 6 5 12 14 14 8 10 13 10 9 15 16
13 11 11 9 8 7 7 8 11 9 7 23 18 19 4 4 10 12 13 11 13 12 14 13 15 13 10 16 8 11 12 13 12 5 9 16 18 14 12 5 6 12 13 10 19
12 9 8 6 6 6 12 16 10 11 8 18 18 13 11 9 14 14 16 15 13 13 13 15 14 5 7 12 14 10 13 12 14 10 14 19 13 11 6 9 5 7 9 12 13
11 9 7 3 4 10 13 16 15 9 7 16 15 11 15 10 12 8 16 13 10 14 12 12 12 12 12 11 10 14 13 11 11 12 12 14 13 15 14 4 12 11 3 12 12
11 7 6 11 12 9 8 4 6 4 7 13 14 9 11 15 11 11 9 14 17 14 7 14 9 9 11 13 11 13 12 11 9 13 17 19 11 13 12 9 6 5 7 5 8
11 7 6 6 7 14 4 2 7 8 7 10 11 12 16 17 11 10 8 12 12 12 15 12 14 7 9 12 8 6 12 13 15 15 14 11 12 1 7 5 5 3 10 2 3
10 8 8 9 4 6 5 7 7 11 9 11 12 14 16 15 16 9 10 12 12 11 16 18 20 17 12 11 13 10 12 10 12 9 8 3 12 6 8 10 2 2 9 8 3
10 8 15 9 12 7 6 8 9 16 12 7 11 11 13 16 17 10 12 12 14 16 14 11 10 17 15 9 12 11 14 10 14 14 8 14 8 5 3 8 3 3 9 8 4
4 6 8 9 13 7 8 10 12 11 4 4 9 12 14 14 8 11 15 14 17 16 8 10 9 10 5 8 5 12 14 12 13 15 13 10 14 18 20 8 4 12 12 8 4
5 8 10 11 12 8 8 15 19 8 10 10 7 9 12 13 11 12 9 11 4 4 9 11 14 12 15 11 9 14 14 13 9 10 13 10 10 9 8 4 7 14 9 11 1
6 7 10 10 8 7 10 15 4 2 5 9 13 9 9 13 13 13 6 6 5 5 3 12 13 16 16 14 10 12 14 15 11 11 10 12 4 9 15 5 6 15 12 13 12
7 7 9 10 8 9 13 11 3 10 6 11 6 15 11 9 5 3 7 10 11 7 7 12 14 12 17 22 21 18 19 12 12 13 11 9 10 11 10 20 16 17 14 13 14
6 8 9 8 9 10 13 4 4 4 9 5 6 3 11 10 6 9 13 10 6 4 9 11 8 9 12 14 18 17 11 14 14 15 15 16 12 12 4 15 16 17 11 11 11
7 4 7 7 11 16 6 4 8 2 11 6 12 9 8 9 10 7 13 2 9 3 7 4 12 15 14 18 22 17 18 13 14 15 8 16 16 10 14 13 15 13 9 8 9
6 6 7 3 9 11 4 7 4 5 7 1 7 7 11 11 10 11 7 9 10 13 6 5 13 16 17 19 20 21 19 18 18 19 19 20 24 18 3 17 11 7 10 6 9
6 7 10 10 4 6 0 7 8 6 1 8 4 11 4 7 11 14 15 11 10 5 9 9 12 14 17 18 18 20 21 21 21 21 22 21 21 19 16 13 7 9 6 5 8
8 8 6 7 7 8 4 8 3 10 4 4 10 9 9 12 13 13 13 12 15 15 13 13 12 13 17 18 20 17 18 17 20 14 14 16 10 13 13 14 12 9 9 5 6
Wind_Direction
340 339 338 337 336 335 333 332 330 328 325 322 321 320 320 320 305 239 261 49 348 333 319 278 264 267 245 249 172 84 171 344 31 47 46 112 105 297 144 171 170 72 99 178 150
341 339 339 339 333 332 331 330 328 327 323 321 320 319 322 325 294 271 158 253 14 3 307 321 341 287 254 227 146 126 220 16 29 30 25 66 117 215 178 48 1 53 16 347 165
340 338 341 334 331 331 328 327 327 324 322 320 318 317 320 315 276 261 130 254 309 296 287 289 282 280 293 178 104 313 42 354 46 24 9 64 254 209 114 150 206 156 158 248 215
337 340 335 332 328 328 324 322 321 319 318 316 316 318 318 272 300 97 172 226 232 271 279 272 272 273 260 117 116 103 18 28 13 56 295 348 345 297 36 75 40 146 174 199 190
336 333 331 328 326 322 319 317 317 315 312 311 314 323 308 235 253 132 158 172 211 235 261 278 288 331 332 330 227 31 350 146 142 262 11 1 297 340 287 142 115 153 178 172 188
333 329 327 324 320 316 314 313 312 309 306 305 309 318 248 258 59 142 211 171 235 216 246 254 323 347 303 328 324 319 267 66 70 44 260 298 28 289 127 160 160 148 170 161 200
328 325 322 318 314 313 312 310 307 303 298 297 302 289 266 254 351 172 217 221 215 214 245 236 313 303 314 298 91 272 267 181 110 18 311 323 44 307 279 183 176 160 192 164 179
326 322 317 313 310 310 310 307 302 296 292 285 285 265 265 256 252 215 236 236 249 244 289 352 322 286 279 283 260 233 235 274 122 71 299 269 194 215 239 200 210 173 183 192 175
322 317 312 308 307 308 305 307 294 289 272 274 244 230 258 149 227 238 241 234 203 234 238 293 271 273 290 261 259 226 252 236 61 160 358 318 300 243 195 188 217 183 188 184 175
320 313 306 303 305 307 306 291 286 298 225 230 261 252 250 230 199 211 212 250 233 236 231 234 244 254 246 261 279 42 249 354 343 1 13 304 313 316 282 196 195 239 195 179 188
320 310 302 300 302 315 313 205 204 197 229 214 171 234 147 176 104 207 191 208 238 237 237 232 242 244 264 282 358 344 305 295 303 322 304 309 285 281 276 262 196 198 240 193 195
317 305 297 292 296 312 280 251 343 341 235 226 268 215 310 328 202 217 206 214 224 242 226 244 249 251 266 293 316 301 295 286 281 288 328 293 286 270 263 197 269 195 199 233 189
312 297 286 289 309 257 233 246 329 322 266 180 212 223 223 223 248 187 196 211 239 227 252 261 264 306 297 297 300 271 256 281 285 335 284 281 304 294 243 139 215 250 225 213 205
312 295 273 274 272 219 219 238 258 284 277 158 197 215 208 210 237 229 185 223 227 261 271 259 273 268 287 262 267 281 289 322 328 300 297 311 286 277 129 216 196 236 208 205 188
319 286 245 229 322 234 58 183 230 251 270 141 149 121 172 213 124 188 184 214 249 250 215 275 234 242 252 262 286 276 296 287 277 282 283 278 266 146 156 154 25 25 90 301 176
321 262 209 201 225 263 292 183 234 234 255 146 144 194 199 213 232 128 203 227 259 263 273 259 284 244 273 309 284 308 298 289 272 261 267 287 275 40 121 145 78 136 86 351 91
326 221 205 316 284 190 243 224 222 248 128 154 171 180 206 196 235 160 204 204 229 221 239 239 231 230 224 252 250 236 251 268 268 205 269 272 300 26 86 95 84 53 139 131 148
345 168 218 258 307 275 235 226 254 229 236 113 156 167 199 196 214 179 199 219 223 266 286 286 309 196 188 210 284 292 273 259 295 306 320 179 229 172 83 86 106 94 91 101 157
312 204 241 218 228 269 244 226 237 334 320 154 218 182 209 189 249 198 216 223 221 208 280 321 341 138 157 251 257 287 277 280 279 279 276 282 52 13 8 131 67 73 35 124 160
262 251 214 153 182 226 243 259 299 7 341 318 227 219 224 186 209 249 226 216 250 62 325 303 300 308 304 173 222 257 286 304 298 286 284 296 306 142 228 56 46 76 36 10 38
238 248 120 160 191 233 242 239 315 86 297 276 278 294 256 285 185 231 249 86 182 132 172 306 299 294 296 282 249 270 219 249 279 289 289 292 63 205 194 226 136 85 52 24 7
272 267 133 170 207 228 239 284 43 295 199 273 298 312 328 314 287 259 301 61 40 8 317 308 318 297 301 311 307 301 294 254 240 251 268 296 296 105 104 15 62 76 48 33 2
264 243 152 202 234 237 221 290 255 258 254 250 257 287 325 324 329 299 311 97 66 358 34 357 291 303 301 295 252 337 265 292 287 271 263 280 281 88 78 75 41 12 43 20 5
277 255 154 206 267 287 301 237 194 193 307 330 316 347 302 275 273 260 292 251 109 61 68 312 282 281 281 296 311 305 305 284 284 292 276 280 297 28 94 51 26 351 337 14 20
247 307 2 229 220 236 310 334 281 191 188 130 287 263 290 310 289 276 250 266 181 140 176 239 265 273 282 294 296 298 297 297 291 288 286 297 300 308 92 139 179 187 281 26 27
329 349 344 294 317 316 83 256 260 280 125 294 225 287 2 309 306 313 318 322 316 229 273 243 265 274 275 275 275 278 277 275 273 271 273 276 279 293 303 142 113 209 85 28 31
5 323 277 296 270 256 280 339 58 20 16 317 347 334 304 23 346 327 327 315 299 294 286 284 285 296 289 304 302 286 280 271 277 296 310 281 309 23 13 32 30 31 85 41 25